Theta_e
296 294 293 293 292 292 292 291 291 290 291 289 290 289 288 288 288 287 287 287 286 286 285 284 284 283 283 282 282 281 281 281 280 280 280 280 283 292 299 301 303 305 307 307 308 309 309 309 310 311 312 312 312 311 311 312 311 312 313 313 315 316 316 316 315 313 313 314 314 314 314 313 312 313 313 313 313 312 312 311 311 310 310 310 310
295 293 294 292 291 292 292 291 291 290 290 289 289 289 288 287 287 287 287 286 287 289 285 284 284 283 282 283 282 281 280 280 280 280 280 280 282 286 296 297 299 301 304 306 307 307 308 308 309 310 310 312 311 311 311 312 312 311 312 312 314 316 316 315 314 313 313 314 314 313 313 313 312 311 312 313 312 312 312 311 310 310 310 310 310
293 292 292 291 291 291 291 291 290 290 290 289 289 289 288 288 288 287 287 287 287 287 285 285 284 284 284 283 281 281 281 281 281 280 280 280 280 282 287 294 296 298 300 303 305 306 307 307 308 309 310 310 311 310 311 311 311 311 313 312 313 316 316 315 313 312 313 313 314 313 312 312 311 311 312 312 311 311 312 311 311 310 310 310 309
293 292 292 291 290 291 290 291 290 290 290 290 290 289 288 287 287 287 287 288 286 285 285 285 283 283 282 282 281 282 281 281 280 280 280 280 280 281 283 287 292 294 296 299 302 304 305 306 307 308 309 309 309 310 310 310 310 311 311 313 314 316 315 315 314 313 313 313 313 313 312 311 311 312 312 312 312 311 311 311 310 310 310 310 309
292 293 294 290 290 291 291 292 291 291 291 290 290 289 288 288 288 288 287 287 286 286 286 284 283 282 282 282 281 281 281 280 280 280 280 279 280 280 281 283 282 290 292 295 298 301 302 303 305 306 307 307 308 309 309 310 310 311 312 311 313 316 316 315 314 312 312 313 313 312 312 311 311 312 311 312 312 311 310 311 310 310 310 310 309
293 293 292 291 291 291 291 291 290 291 292 291 289 288 288 288 288 288 291 288 286 285 284 284 282 281 282 281 281 280 280 281 279 279 279 279 279 280 279 280 281 282 284 290 293 297 299 301 302 303 305 306 307 307 309 309 310 311 311 311 313 315 315 315 313 313 313 312 313 312 312 310 310 311 311 311 311 311 311 310 310 310 310 309 309
294 293 292 291 291 291 291 290 291 292 291 291 290 289 288 288 288 288 286 286 285 287 284 284 283 283 283 283 281 281 281 280 280 279 279 279 280 279 280 280 281 282 283 279 288 293 296 298 299 300 301 304 305 306 307 308 309 310 311 311 311 315 315 315 313 312 312 313 312 312 311 311 310 311 311 312 311 311 311 310 310 310 310 309 309
294 293 292 291 291 290 290 291 291 291 291 291 291 290 288 288 287 287 286 285 287 285 284 284 283 282 283 282 282 285 280 280 281 280 280 278 279 278 279 280 281 283 285 280 280 286 292 294 295 296 298 300 302 303 304 306 308 309 310 311 311 314 314 314 313 311 312 312 312 312 311 310 310 311 311 312 311 311 311 310 310 310 310 309 309
294 293 292 291 291 290 291 291 292 291 291 291 291 291 289 289 287 288 287 286 286 284 283 283 283 283 283 282 282 285 281 280 280 279 281 279 278 278 279 279 283 286 279 279 280 280 287 291 292 292 294 297 299 301 302 304 306 308 309 311 310 313 314 315 313 311 312 312 311 312 310 310 310 311 311 311 311 311 311 310 310 310 309 309 309
293 293 292 292 291 291 291 291 292 291 291 291 291 291 291 290 288 288 288 288 285 285 284 283 283 283 283 283 282 282 280 280 283 287 279 280 279 279 280 279 279 279 279 279 279 279 279 284 288 288 290 294 296 298 300 301 304 307 308 309 310 312 313 313 313 312 311 311 311 311 310 310 310 310 311 311 311 311 311 310 310 310 309 310 310
294 294 293 293 292 292 291 291 291 291 291 291 291 291 291 290 289 288 289 287 286 286 285 285 283 283 283 282 281 282 280 281 286 280 280 280 285 284 280 279 279 279 279 278 279 278 279 279 279 278 280 290 292 294 296 298 302 305 307 308 310 311 313 313 312 312 311 311 311 311 311 310 310 310 311 311 311 311 310 310 310 310 310 310 309
294 294 294 293 293 293 292 292 291 291 290 290 290 291 291 290 289 288 288 288 287 286 286 285 282 282 286 283 281 281 281 286 282 280 285 280 279 281 279 282 278 279 278 278 278 278 279 278 282 278 279 283 288 290 292 296 300 303 305 307 310 310 312 310 311 311 311 310 311 311 310 310 309 309 311 311 311 311 310 310 310 310 310 310 310
295 294 294 295 293 294 293 293 294 293 292 291 291 291 291 290 290 290 288 286 285 285 285 284 284 284 282 282 282 282 287 285 281 281 282 279 278 278 280 279 278 278 278 278 278 278 278 279 279 278 278 277 279 286 288 291 295 300 302 305 308 309 312 310 311 311 311 310 311 310 311 310 310 309 309 311 311 311 311 310 310 310 310 310 309
295 294 294 293 293 293 292 292 293 293 293 292 292 293 291 290 290 288 286 285 284 284 285 285 284 282 282 282 282 280 284 283 282 282 281 281 280 279 279 279 279 278 278 278 278 278 278 279 278 278 278 277 278 278 279 282 286 297 300 302 306 308 310 310 310 310 310 310 311 310 310 311 309 308 308 309 309 309 310 310 310 310 310 310 310
294 294 294 294 293 294 293 293 293 293 292 291 291 291 290 290 290 289 286 284 284 284 284 283 281 281 280 282 281 283 284 283 282 282 281 280 280 280 282 279 280 277 279 278 278 278 279 278 277 277 277 277 277 277 278 282 288 296 298 302 304 306 309 310 311 309 310 309 310 309 310 309 308 309 309 309 309 309 310 310 310 310 309 310 309
294 294 294 295 295 294 294 294 294 294 293 291 290 290 290 289 288 288 286 283 282 283 284 282 281 284 284 282 281 281 280 281 280 281 279 280 280 280 280 279 278 278 278 279 279 278 278 278 277 277 277 277 277 277 278 279 288 291 295 297 301 305 307 310 310 310 309 309 309 308 308 309 309 309 309 309 309 309 310 310 310 309 309 309 309
295 295 295 295 295 295 294 294 294 294 294 293 291 290 289 289 287 286 286 285 283 282 284 282 282 283 284 282 282 282 280 280 279 282 281 282 281 280 282 281 280 281 280 278 278 277 278 278 277 277 277 277 277 277 278 278 279 282 284 293 301 303 306 308 309 310 309 308 308 308 309 309 309 309 308 308 308 309 309 309 309 308 309 309 309
293 293 294 294 293 294 294 294 293 293 292 291 290 290 289 288 287 287 285 285 285 283 283 285 284 284 281 284 283 283 283 281 280 280 280 280 279 280 279 279 278 280 278 279 279 277 281 278 278 277 277 277 277 277 277 278 281 281 283 288 298 301 304 307 309 309 309 308 307 308 308 309 309 308 308 307 308 308 308 308 308 309 308 308 309
293 292 292 293 292 292 293 294 294 292 292 290 290 290 289 289 288 287 286 287 285 282 283 283 281 281 282 281 282 281 279 280 280 278 278 279 280 279 281 280 278 279 280 280 278 278 276 279 278 277 276 277 277 277 277 278 282 285 289 293 296 299 303 306 308 308 308 307 306 307 307 308 308 308 308 307 307 307 308 308 308 308 307 308 308
294 292 292 292 292 291 292 292 292 291 292 290 290 289 289 289 289 288 288 286 285 283 282 282 282 282 284 280 280 279 278 278 277 280 278 277 279 279 278 277 277 278 280 279 278 278 277 277 276 278 277 278 277 277 277 278 277 278 282 291 294 297 300 304 307 308 307 307 306 306 306 307 308 308 308 307 307 307 307 307 307 307 307 307 308
293 293 293 293 293 292 291 291 291 290 291 290 289 289 289 288 288 288 287 287 285 284 283 283 282 281 280 279 278 277 277 278 278 277 276 276 276 277 279 278 277 277 277 277 278 277 278 278 278 281 279 278 276 277 277 277 277 278 286 290 293 296 299 301 305 307 307 307 306 305 306 306 307 307 307 307 306 306 306 306 307 307 306 307 306
293 293 293 293 293 293 292 291 290 291 291 289 289 289 288 288 288 288 288 287 285 286 284 282 282 281 280 280 280 280 280 279 277 276 276 277 279 276 275 277 277 276 276 276 276 277 277 277 277 276 276 276 277 277 277 277 278 280 284 289 291 294 297 299 302 306 306 305 305 305 305 306 306 306 306 306 306 306 306 306 306 306 306 306 306
292 292 293 293 292 293 292 291 290 291 291 289 289 289 288 288 287 287 287 287 286 285 287 283 282 281 279 280 280 280 279 279 278 278 277 276 276 276 275 276 274 274 276 276 278 278 277 276 276 276 276 276 277 278 277 278 282 283 287 288 289 291 294 298 301 304 305 305 304 304 304 305 306 306 306 306 305 305 306 306 306 306 305 305 305
291 291 291 292 292 292 292 291 290 290 289 289 289 288 288 288 288 288 286 286 285 285 283 281 280 281 280 280 280 279 279 280 278 278 277 275 278 276 276 275 274 274 276 276 276 276 277 277 277 277 277 276 278 279 278 278 279 285 285 287 287 289 292 296 299 302 304 304 304 303 304 305 305 305 305 305 305 305 305 305 305 305 305 305 305
290 290 291 291 292 291 290 290 290 290 289 289 288 288 287 287 286 286 285 284 284 283 283 282 282 282 281 279 279 279 279 278 278 278 277 276 275 275 274 274 274 273 273 274 276 276 277 278 278 277 277 277 279 278 278 278 278 283 286 285 286 287 290 294 298 300 302 303 303 303 303 304 305 305 304 304 304 304 305 304 304 304 304 304 304
289 289 291 291 291 291 290 290 290 289 289 288 288 287 286 286 286 285 284 284 283 283 282 282 281 280 279 279 278 279 278 278 278 278 277 276 275 275 273 273 273 273 272 273 274 276 278 278 277 277 277 277 277 277 277 277 279 283 286 283 281 285 287 290 294 297 300 302 302 303 303 303 304 304 304 304 303 303 304 304 303 303 303 303 303
290 290 291 291 291 290 289 289 289 289 288 288 288 287 286 286 285 284 284 283 282 282 281 281 280 279 279 278 279 279 279 278 278 278 277 275 273 274 274 277 276 273 273 272 271 274 275 274 276 277 276 278 277 276 277 278 281 284 286 279 277 283 285 289 292 295 297 299 300 301 302 303 304 304 304 303 303 303 303 303 302 302 302 302 302
291 290 290 290 290 289 289 288 289 289 288 287 287 286 286 285 285 284 283 284 282 282 281 281 280 279 279 279 279 279 280 279 278 277 277 277 276 274 275 275 278 279 273 273 272 273 273 276 275 276 276 277 277 277 281 281 278 284 284 279 277 277 283 287 290 292 294 296 298 299 301 303 303 303 303 303 302 302 302 302 302 302 302 302 302
290 290 290 290 289 289 288 288 288 288 287 287 286 286 286 285 284 284 283 283 283 281 280 280 280 281 281 281 280 279 278 278 278 278 277 276 276 275 273 274 275 277 275 276 273 272 275 275 277 277 277 277 277 278 278 277 280 283 280 279 278 275 282 286 288 289 290 292 294 296 299 301 302 302 303 302 302 302 302 302 302 302 302 301 301
290 290 290 289 288 288 288 287 287 287 287 287 286 286 285 284 284 284 283 283 283 282 282 282 281 281 281 280 280 279 278 277 277 277 277 276 276 276 275 274 272 274 272 278 278 273 274 273 274 275 275 276 277 278 278 278 282 283 280 279 277 276 283 285 285 287 288 290 292 294 298 300 301 302 302 301 302 302 302 302 302 301 301 300 300
290 289 289 289 288 288 287 287 287 287 287 286 286 285 284 284 284 283 283 283 282 282 282 282 281 281 280 279 279 278 278 277 277 277 277 277 276 276 275 275 275 272 273 273 276 277 274 275 274 275 274 275 276 277 278 278 280 283 280 279 277 281 283 281 284 285 287 288 290 293 296 298 299 300 301 301 301 301 301 301 300 300 299 299 298
290 290 289 288 288 287 287 287 287 287 286 286 285 284 283 282 282 282 281 281 281 281 280 280 281 280 280 279 279 278 277 277 277 277 277 277 276 276 276 275 274 273 274 274 277 278 275 276 274 274 275 275 276 277 277 278 279 284 279 279 278 282 277 276 280 283 285 286 288 291 294 294 295 297 298 299 299 300 300 300 299 298 297 297 296
290 289 288 288 287 287 287 287 286 286 286 284 284 282 281 281 281 281 281 281 281 280 280 280 281 281 281 279 278 278 278 277 277 277 277 277 277 277 276 275 275 274 274 273 274 275 275 275 275 274 275 276 276 276 276 277 278 278 281 278 277 276 276 276 276 280 283 285 288 290 291 291 291 293 294 295 296 297 297 297 296 295 294 293 294
290 289 288 287 287 287 287 286 286 286 285 284 283 283 282 282 281 283 282 282 281 281 281 280 281 281 281 280 279 278 277 278 277 277 277 276 276 276 276 276 275 275 274 274 273 274 276 275 275 275 275 276 276 276 277 276 277 278 278 277 276 276 276 276 275 276 282 285 287 289 289 289 289 290 291 292 293 293 294 293 292 292 292 292 293
290 289 288 287 287 287 286 286 286 285 285 285 284 283 283 283 282 283 284 282 282 281 281 281 281 281 281 281 280 279 279 279 278 278 277 277 277 276 276 276 276 275 275 274 273 274 273 274 274 274 274 275 275 277 276 276 277 277 276 277 277 277 277 276 276 275 281 284 286 287 288 288 288 288 289 290 290 291 291 291 291 290 290 290 292
289 289 288 287 286 286 285 285 285 285 285 285 285 284 285 284 284 283 283 283 283 282 282 283 282 282 281 280 280 280 280 280 279 279 278 278 277 277 277 276 276 276 275 275 275 275 273 274 274 274 274 275 275 276 276 277 276 276 276 276 276 276 276 276 275 276 279 283 285 285 286 286 287 287 287 289 289 290 290 290 290 289 288 289 290
290 289 288 287 286 285 285 285 285 285 285 285 285 285 285 285 284 284 283 283 283 283 283 283 284 282 282 281 281 281 281 280 280 279 279 278 278 278 278 277 277 276 276 275 275 275 274 274 275 274 274 274 275 275 275 275 275 275 275 276 277 277 276 275 276 277 282 283 282 282 283 284 285 286 286 287 288 288 288 288 288 287 287 288 289
290 289 288 287 286 285 285 285 285 285 285 285 284 284 284 284 284 284 284 284 284 283 283 283 283 283 282 282 282 282 281 281 281 281 280 279 279 279 279 278 277 277 276 275 275 275 274 274 274 274 274 275 275 275 275 274 275 277 278 277 276 276 274 276 277 278 276 275 275 276 279 280 282 284 285 285 287 287 287 286 286 286 286 287 289
290 288 288 287 286 286 286 285 285 285 285 285 284 284 284 283 284 284 284 284 284 284 284 283 283 283 283 283 283 283 282 282 282 282 281 280 280 280 280 279 278 277 275 275 275 275 275 275 275 274 274 275 275 276 275 275 276 275 275 276 278 275 274 275 278 278 277 275 277 280 280 280 282 281 282 284 286 286 286 285 284 284 285 287 289
290 289 288 287 287 286 286 286 286 285 285 285 284 284 284 283 283 283 284 284 284 284 284 284 284 284 284 284 284 284 284 284 283 283 283 282 281 280 280 280 278 277 277 276 275 275 276 275 275 275 273 274 274 275 275 275 276 275 274 274 277 279 279 275 274 276 276 274 275 276 278 279 279 279 280 281 282 283 284 283 282 283 284 286 289
291 290 289 288 287 286 286 286 285 285 285 285 285 284 284 283 283 283 284 284 284 283 284 284 284 284 284 284 284 284 285 285 285 285 285 284 282 281 281 280 279 278 278 278 277 277 276 276 276 276 274 275 276 275 276 274 275 278 274 272 273 274 274 275 277 275 274 273 274 275 276 277 276 276 274 274 275 279 278 281 280 281 283 287 289
291 289 289 288 287 287 286 285 285 285 285 285 285 286 287 284 284 284 284 284 284 284 283 283 284 284 284 284 285 285 285 285 285 285 286 286 286 284 283 281 280 279 279 279 278 278 278 277 277 277 275 276 278 277 276 275 274 273 272 272 272 274 274 276 278 273 272 272 273 275 277 276 275 276 274 273 275 275 275 275 275 279 283 287 289
290 289 289 288 287 287 287 286 285 285 285 285 286 288 288 288 285 284 284 284 284 284 284 284 284 284 284 285 285 285 285 284 285 285 287 287 287 286 286 285 283 282 281 280 280 279 278 278 279 278 276 277 279 278 277 278 274 275 275 272 274 271 271 273 279 277 272 273 272 273 278 275 274 275 275 274 274 274 275 275 281 283 285 288 289
290 289 288 288 288 287 287 287 286 286 285 286 288 289 289 289 287 285 284 284 284 284 284 284 284 284 284 284 284 284 284 284 285 285 285 286 287 287 287 286 286 286 286 284 283 281 280 279 279 279 277 278 279 278 277 275 277 273 274 273 272 272 272 272 270 274 273 274 274 275 277 273 271 272 273 274 274 274 275 278 282 284 285 288 288
289 289 289 288 288 288 288 287 287 287 286 287 289 289 290 290 290 287 284 284 284 285 284 284 284 284 284 284 284 285 285 285 285 285 285 285 285 286 286 286 286 286 287 287 287 285 283 281 281 281 280 280 278 280 278 276 274 273 270 270 271 271 272 273 275 272 274 272 275 272 275 275 269 269 271 274 275 274 274 279 282 284 286 288 288
289 289 289 288 288 288 288 288 288 287 287 287 289 289 289 289 290 289 285 285 285 285 284 284 285 285 285 285 285 285 286 286 286 285 285 285 285 285 285 285 285 285 286 287 286 286 286 283 282 282 284 282 281 280 278 280 276 277 273 275 271 270 271 273 275 274 273 272 273 271 271 274 267 269 272 274 273 273 274 278 282 284 286 287 287
290 290 289 288 288 288 288 288 288 288 288 289 290 290 290 290 290 290 287 286 285 284 285 285 286 286 286 286 286 286 286 286 286 286 285 285 285 285 285 284 284 285 285 285 285 285 285 285 284 283 284 283 283 282 280 279 280 280 280 281 279 276 272 270 273 273 273 273 272 272 273 273 267 269 274 275 274 273 273 278 281 283 285 287 287
290 290 290 290 289 289 289 289 288 288 289 290 290 290 290 290 290 288 287 286 286 286 286 286 286 286 286 286 286 286 286 286 287 287 286 286 285 285 284 285 285 285 285 286 287 287 285 285 285 284 284 284 285 282 281 280 279 279 278 273 272 272 272 273 276 272 272 269 273 274 269 270 268 270 273 270 270 274 275 271 277 281 284 287 287
290 290 290 290 290 290 289 289 288 289 289 289 290 290 290 291 290 287 287 287 287 287 287 287 287 287 287 286 286 286 286 286 287 289 289 286 285 285 285 285 285 285 285 286 287 288 288 288 288 288 288 288 288 288 288 287 283 281 278 273 277 272 272 275 277 275 277 271 270 273 273 274 270 265 271 273 271 273 273 271 268 276 283 285 286
290 291 291 290 290 290 290 290 289 289 290 289 289 290 290 291 289 288 287 287 287 287 287 288 288 288 288 286 286 287 287 287 288 289 289 287 285 285 285 284 284 284 285 286 286 286 287 288 288 288 288 288 288 288 289 289 288 284 278 278 275 275 276 276 277 274 273 271 272 272 273 274 269 265 269 271 270 265 266 267 269 272 279 281 283
291 291 290 290 290 290 290 290 288 289 290 289 289 290 290 290 289 288 288 287 287 287 287 288 288 288 288 287 286 286 287 287 289 289 289 287 286 285 285 285 284 284 285 286 286 285 284 283 284 285 285 286 286 286 286 287 288 286 282 281 277 278 278 278 278 277 277 278 275 275 276 273 273 270 269 273 269 268 265 266 267 267 268 269 271
Wind_Speed
5 5 5 5 5 5 5 5 5 5 5 5 6 6 5 5 5 5 5 6 5 5 5 4 4 4 5 4 4 4 4 4 4 4 5 5 6 8 14 14 13 14 14 13 13 13 13 13 13 14 14 14 14 15 16 15 16 16 16 16 16 19 20 19 20 20 21 22 22 22 23 24 24 23 24 25 25 27 26 26 26 27 27 27 27
5 4 6 5 5 5 5 5 5 5 5 6 5 6 6 5 5 5 5 5 5 5 5 5 4 4 4 5 4 4 3 4 4 4 4 4 5 6 13 13 14 14 14 14 14 14 13 12 13 14 14 14 14 14 15 15 15 16 16 16 16 20 20 19 21 20 21 22 22 22 23 22 23 23 23 25 25 26 26 26 26 26 28 27 28
5 4 4 5 4 5 5 5 5 3 5 5 3 5 5 6 6 6 5 5 5 4 5 5 4 4 3 5 3 3 4 4 4 4 4 4 4 5 6 13 14 14 14 15 15 14 14 13 13 14 14 14 14 14 14 15 14 15 16 15 16 20 21 19 21 20 21 22 21 22 21 22 23 22 23 24 25 26 25 25 25 26 26 27 26
6 5 5 4 4 5 5 5 4 3 4 5 5 4 5 4 4 4 4 5 5 4 3 5 4 4 4 4 3 4 4 4 4 3 4 4 3 5 5 5 11 14 14 14 15 15 14 14 14 14 14 14 14 14 14 14 15 16 15 16 15 20 19 19 20 19 20 21 21 21 21 22 21 22 22 23 24 25 24 24 23 24 26 26 26
5 5 5 4 4 4 4 4 4 4 4 5 5 5 5 5 5 4 5 4 5 4 4 4 5 3 4 3 3 3 2 3 3 4 4 3 4 5 5 4 4 9 13 15 15 15 15 15 14 14 14 14 13 14 14 14 14 15 15 15 16 19 19 19 20 20 20 21 21 22 21 21 21 21 22 23 24 24 25 24 23 24 24 24 25
5 5 5 5 4 4 4 4 4 4 5 5 6 5 5 5 5 5 4 4 5 4 5 4 3 3 3 2 3 2 2 4 3 3 3 3 3 4 4 5 4 4 5 11 14 15 15 15 15 15 15 14 13 13 14 14 14 15 15 16 16 18 19 18 19 19 19 20 21 21 21 21 20 21 21 22 23 23 24 25 23 23 23 24 24
4 6 5 5 5 4 4 5 4 4 5 5 6 4 5 6 5 6 3 3 3 3 4 4 3 3 2 1 2 1 1 2 1 3 4 2 4 4 5 4 4 4 4 5 8 13 15 16 15 15 15 14 13 13 14 13 13 14 14 15 14 18 18 17 18 18 19 20 20 21 20 20 20 20 21 22 22 22 22 22 22 22 23 24 24
5 5 5 5 5 5 4 5 4 4 4 4 5 5 4 5 3 6 5 3 4 2 3 4 3 3 1 1 1 1 1 1 1 2 2 3 4 3 4 3 3 3 4 4 5 7 15 15 16 15 15 14 14 13 13 13 13 14 14 15 14 17 18 19 18 18 19 20 21 21 21 20 19 20 21 22 23 23 23 23 23 23 24 24 24
5 4 5 5 5 5 4 4 4 5 5 5 4 4 5 5 2 1 4 4 3 3 3 2 3 2 1 1 0 0 1 1 0 1 1 4 3 3 3 3 3 4 3 4 5 5 9 14 14 15 14 14 14 14 13 13 13 14 14 15 14 17 18 18 18 18 18 20 20 20 20 19 19 20 21 22 22 23 23 23 23 23 24 24 25
5 4 5 5 5 5 5 4 4 5 5 5 4 4 4 5 4 1 2 5 3 4 3 2 2 2 1 0 0 1 1 1 0 1 2 3 3 3 1 1 3 3 3 3 4 4 4 8 12 12 14 14 15 13 13 13 13 13 14 14 14 16 18 18 18 18 19 19 20 21 20 19 19 20 20 21 23 22 23 24 24 24 24 24 25
5 5 6 5 5 5 5 3 4 5 5 5 5 4 4 3 5 3 3 1 3 4 4 4 3 2 1 0 1 2 1 1 0 1 1 1 1 1 1 3 3 3 3 4 3 3 4 5 5 5 7 14 14 13 12 12 12 12 14 14 16 15 17 17 17 17 18 19 20 21 21 20 19 20 21 23 23 23 23 24 24 24 25 26 25
4 4 6 6 5 6 5 3 4 5 6 5 4 4 6 5 4 5 4 3 3 3 4 5 3 3 0 1 1 1 1 0 0 0 0 0 0 1 2 1 4 2 3 3 3 3 4 4 4 5 4 8 13 13 12 11 12 12 14 14 16 14 17 16 16 17 18 19 20 21 21 21 20 20 21 22 23 23 23 24 26 26 26 26 26
6 4 5 6 5 5 5 4 3 4 5 5 4 3 3 4 5 3 4 3 2 2 2 4 4 1 1 1 2 1 0 0 0 0 0 0 0 1 1 2 2 3 3 2 3 3 3 4 4 4 5 5 6 10 12 12 12 12 13 13 15 14 16 16 17 17 18 18 20 20 21 21 21 22 23 23 23 23 24 23 24 26 25 25 26
7 7 5 6 6 5 5 5 4 4 3 3 5 2 2 4 4 3 2 3 1 3 4 4 0 3 1 1 2 3 1 1 1 1 1 0 0 0 2 2 2 2 2 2 2 3 3 3 3 4 4 4 4 5 6 7 8 12 12 12 16 14 16 17 16 17 18 18 19 20 21 21 22 22 20 21 23 25 26 24 24 25 26 26 26
5 6 6 5 6 6 5 5 4 4 4 4 4 4 4 5 5 5 3 2 2 0 3 1 3 2 1 1 1 1 0 1 0 2 1 1 0 0 0 0 0 1 1 1 2 3 3 3 3 3 4 4 4 4 5 6 8 14 14 15 17 14 15 15 16 17 18 19 19 21 21 22 22 21 21 22 22 22 23 24 25 25 25 24 25
4 4 4 5 5 6 5 6 6 4 4 5 3 3 4 4 3 3 5 3 1 1 1 2 3 5 1 2 1 1 2 0 2 2 1 1 1 1 0 0 0 1 0 0 1 1 1 2 3 3 3 3 3 4 5 4 9 12 15 16 16 14 15 16 15 18 18 17 19 20 20 21 21 21 22 22 22 22 23 23 23 23 26 26 25
5 4 5 5 4 5 5 5 5 5 4 4 4 4 4 4 4 4 4 5 3 1 1 2 3 1 2 2 0 0 2 1 0 0 1 1 2 2 1 1 1 0 0 1 1 0 0 1 2 3 3 3 3 3 4 4 5 4 7 13 15 14 15 16 16 15 17 17 17 18 19 21 21 21 21 22 23 24 23 23 23 24 24 26 25
5 5 5 4 5 4 4 5 6 5 5 6 6 5 5 5 5 4 4 1 4 3 3 0 0 1 1 0 0 0 2 1 0 1 1 1 1 1 2 2 0 1 2 2 2 1 0 1 1 2 3 3 3 3 4 5 4 5 5 8 15 14 14 15 17 16 16 17 17 18 19 20 20 21 21 22 22 22 23 24 25 24 24 24 26
5 5 5 6 6 6 6 4 4 5 4 4 5 6 6 5 4 4 5 4 4 3 5 4 1 1 2 1 1 0 1 1 2 0 1 0 1 1 1 0 1 2 3 3 3 1 1 0 1 2 3 3 3 3 3 4 6 7 12 14 15 14 14 15 16 16 16 16 17 17 19 20 20 21 21 21 23 22 23 23 23 24 24 24 25
5 4 4 5 6 6 6 5 5 5 5 4 5 3 3 2 4 4 4 4 5 5 4 5 5 2 2 3 3 2 1 2 1 1 1 1 0 0 1 2 2 3 3 4 4 3 2 1 1 2 3 3 3 3 3 3 4 4 6 14 15 14 14 14 16 16 16 16 17 18 18 18 19 20 21 22 22 22 22 22 22 23 24 24 24
4 5 4 4 4 5 5 4 5 5 5 3 3 4 5 5 5 4 5 4 4 2 4 5 4 4 3 1 2 2 2 1 1 1 1 1 1 1 1 1 1 4 3 3 4 3 3 3 1 1 2 3 3 3 3 3 4 4 6 13 14 14 14 14 15 16 16 16 16 16 18 18 19 20 21 21 21 22 23 23 23 23 23 24 24
3 3 3 3 4 3 4 4 3 4 4 4 4 4 4 4 5 5 4 4 3 4 4 3 4 2 3 5 2 1 1 0 1 2 2 1 1 1 3 3 2 2 2 2 2 2 3 3 2 3 2 3 3 3 3 3 3 3 5 13 14 14 14 14 14 15 16 16 16 16 17 19 18 19 20 21 21 21 22 23 23 23 23 24 24
3 3 4 4 4 3 4 4 3 4 4 4 5 5 4 4 3 2 3 4 4 3 2 2 3 3 3 5 5 4 3 2 2 2 1 0 1 0 1 2 2 3 1 2 3 3 2 2 3 3 3 2 2 3 3 3 4 5 9 11 13 14 14 14 14 14 15 16 15 16 16 17 18 18 19 20 21 21 21 22 23 24 24 24 24
4 3 3 4 4 4 3 4 5 4 5 4 4 3 3 3 3 2 3 2 2 3 3 4 3 3 3 2 3 3 2 1 3 4 4 2 2 1 1 0 1 4 5 6 3 3 3 4 4 3 3 2 2 2 3 3 4 8 5 8 12 13 13 14 14 14 15 15 15 15 15 16 18 18 18 18 20 20 21 22 22 23 24 24 24
5 6 5 5 4 5 5 4 4 4 4 3 3 4 4 4 3 3 3 3 4 4 4 4 5 5 5 1 1 2 2 2 4 4 3 3 4 2 0 1 1 3 1 1 2 4 4 4 3 4 3 2 2 3 3 4 4 6 7 5 10 12 13 13 14 15 15 15 15 15 15 16 17 18 18 18 19 19 20 21 22 22 23 24 24
8 8 6 5 4 4 4 3 3 3 4 4 4 3 3 4 3 3 3 3 3 3 4 4 3 2 3 4 2 2 2 2 3 4 4 4 2 2 2 0 1 3 3 2 1 2 1 1 2 2 2 2 2 3 3 4 4 6 8 4 6 10 12 12 14 15 15 15 15 15 15 15 16 17 17 18 18 19 19 20 21 22 22 23 23
8 6 6 5 5 5 4 4 5 5 4 3 3 3 3 3 3 3 3 3 3 4 4 5 5 4 3 3 4 2 2 2 3 2 3 3 3 5 4 0 1 0 2 1 2 2 4 3 0 1 3 2 2 3 3 4 5 7 7 3 4 9 11 12 13 15 15 15 15 15 15 15 16 16 17 17 17 18 18 19 20 21 22 22 23
6 7 6 7 7 6 5 5 5 5 4 4 4 4 3 4 3 3 4 2 4 4 4 4 4 4 3 3 3 2 2 2 1 3 3 2 3 4 3 3 2 1 1 2 1 2 1 1 1 1 2 2 2 2 4 4 4 7 6 3 4 5 8 11 13 14 16 15 15 14 15 15 16 16 16 16 17 17 18 18 19 20 21 21 22
6 6 7 7 6 6 5 5 5 4 4 4 4 4 4 3 4 4 4 3 3 4 3 3 3 4 4 5 5 5 3 2 2 2 2 2 2 3 2 2 3 2 0 1 2 2 1 2 1 0 1 1 2 2 3 4 5 5 4 4 4 3 6 10 11 13 15 15 14 13 14 15 15 16 16 16 16 16 17 17 18 18 19 20 21
7 7 7 7 6 6 5 5 4 4 5 4 4 4 4 3 3 3 4 4 4 3 3 4 4 3 3 2 2 4 2 2 3 2 2 3 4 3 2 2 3 2 3 1 2 3 2 2 3 2 0 2 1 4 2 5 6 5 4 5 5 4 8 9 10 11 13 14 13 13 13 14 15 16 16 16 15 16 16 16 17 17 18 19 20
7 7 7 7 7 6 5 5 4 5 4 4 4 4 4 4 3 4 4 4 4 4 4 4 4 5 5 4 2 3 2 3 3 2 2 3 4 3 3 3 2 2 4 3 0 2 3 2 3 3 2 2 2 3 4 4 4 4 5 5 5 8 9 6 9 10 13 13 12 13 13 15 16 16 15 15 15 15 16 16 16 16 16 18 19
7 7 7 8 7 6 5 5 5 5 5 4 5 4 4 3 4 4 3 4 4 4 3 2 3 4 5 5 5 6 5 4 4 4 3 2 3 4 3 3 1 2 3 3 3 5 3 5 3 3 3 3 4 4 5 3 3 6 4 5 6 8 5 5 6 9 11 12 12 12 13 15 15 15 15 15 14 14 14 14 14 14 14 15 17
7 8 8 8 8 7 7 6 6 6 6 5 4 4 4 3 3 3 4 4 4 3 3 3 3 5 6 5 5 3 4 5 4 3 2 1 1 1 3 4 3 2 2 3 3 5 5 1 2 3 1 1 3 2 2 4 5 4 4 4 5 5 5 5 5 7 10 11 11 11 12 14 14 14 14 14 14 14 13 13 13 13 13 13 15
8 8 8 7 7 7 8 7 6 5 5 5 5 5 5 4 3 3 4 5 4 4 4 5 5 4 3 4 3 3 3 3 3 3 4 3 3 3 2 4 5 5 3 2 3 2 5 2 2 2 3 1 2 1 1 3 6 5 6 5 4 4 5 5 5 5 9 11 11 11 11 13 14 13 13 12 13 13 12 12 12 12 12 12 14
6 7 7 7 7 7 6 6 6 6 6 6 5 5 5 6 6 5 5 6 6 6 6 6 5 4 4 4 5 5 5 5 4 4 4 5 5 5 5 3 3 3 3 3 3 4 4 5 2 3 1 1 3 3 2 3 4 4 5 6 5 5 4 4 5 4 7 10 11 11 11 13 13 13 12 12 11 12 12 11 11 11 11 11 12
8 7 6 6 7 7 7 6 6 6 6 6 6 6 6 7 7 7 6 6 6 6 7 6 7 7 7 5 6 6 5 5 5 5 4 4 5 5 5 4 3 4 3 3 3 3 3 3 3 2 2 3 4 3 4 4 5 3 3 5 4 5 5 4 4 5 5 9 10 10 10 11 13 12 12 11 11 11 11 11 11 11 10 10 10
7 7 6 6 6 6 7 8 8 8 7 7 7 6 6 6 6 5 6 6 7 7 6 5 6 6 6 7 5 6 6 7 6 8 7 8 6 5 5 5 5 3 2 3 4 3 3 6 6 3 2 2 4 4 2 3 4 3 3 4 5 6 4 5 5 5 7 8 7 9 9 10 12 12 12 11 11 10 10 10 10 10 9 9 9
7 7 7 6 7 9 8 8 8 7 6 7 7 7 7 7 6 6 5 6 6 6 5 6 6 6 7 7 6 7 7 9 7 7 6 7 3 5 6 6 5 4 4 3 3 4 5 7 5 7 1 4 4 3 1 0 4 6 6 3 3 4 2 4 4 4 3 3 3 3 5 8 10 13 13 11 11 10 9 9 9 10 9 9 9
8 8 7 8 7 8 8 7 8 8 7 7 7 7 7 7 7 7 6 6 6 6 5 6 6 7 7 6 6 7 8 9 8 7 7 7 7 8 8 7 5 5 5 5 4 5 6 6 6 6 7 4 4 7 1 0 3 4 4 8 5 2 1 2 7 3 1 3 4 6 6 8 9 8 11 11 10 9 9 8 9 9 9 9 9
8 8 8 9 8 7 7 7 8 7 6 6 6 7 7 7 7 7 7 7 7 6 6 6 6 6 7 7 7 8 9 8 9 7 7 8 7 7 6 6 6 7 7 5 5 6 6 7 7 7 4 6 5 5 3 3 5 2 3 3 6 7 6 1 2 7 4 4 6 6 4 6 6 7 9 9 9 8 8 7 8 9 10 9 9
6 7 7 7 7 7 5 6 6 6 6 7 7 8 8 8 7 8 8 7 7 7 6 6 6 7 7 7 7 8 8 9 10 9 8 8 7 7 6 7 8 9 7 5 6 6 7 7 8 5 6 8 9 7 6 4 5 7 1 2 4 4 6 8 5 3 2 3 5 6 6 5 7 6 5 6 5 4 5 7 6 9 9 9 9
6 6 6 7 7 8 7 7 6 6 7 6 9 13 9 7 7 6 6 7 7 7 7 7 7 7 7 7 8 10 11 11 11 13 14 14 13 10 8 9 9 8 7 7 6 7 6 7 9 6 7 10 10 5 5 4 2 0 0 1 3 5 5 7 5 1 0 1 4 7 6 3 3 7 3 5 5 3 5 4 5 6 9 10 8
6 7 7 8 7 7 8 7 8 7 7 7 11 12 13 12 8 7 8 8 7 8 8 8 8 8 8 8 7 8 9 10 12 16 15 16 15 15 15 13 11 11 9 8 8 7 8 9 7 5 8 10 13 4 6 5 3 5 5 3 5 3 2 3 9 3 1 1 2 4 10 1 0 7 6 5 5 5 4 5 8 10 10 9 9
6 6 7 7 7 7 7 7 7 7 7 9 12 12 12 14 11 8 7 7 7 8 8 8 8 7 8 7 6 5 7 9 9 9 12 15 16 16 16 15 14 13 12 10 9 7 8 8 8 9 7 11 11 4 5 2 5 3 5 4 4 4 5 5 4 5 2 0 4 6 12 2 0 3 6 6 4 4 5 7 10 11 9 9 8
5 6 6 6 7 7 7 7 7 7 6 10 11 10 11 13 13 11 6 7 8 8 8 8 8 8 6 6 7 6 7 11 10 9 8 9 13 17 16 16 17 17 18 19 17 12 7 9 10 10 11 9 7 9 6 5 3 4 3 3 4 5 6 6 7 5 3 2 3 4 9 5 1 1 5 7 5 5 5 7 10 10 9 9 8
6 6 6 7 6 7 8 8 8 7 8 10 13 13 14 13 13 12 8 9 8 8 7 7 8 8 8 7 7 8 7 7 8 9 8 8 7 8 9 11 11 14 17 20 20 20 16 11 10 13 13 7 11 5 5 6 5 5 5 6 4 4 6 8 5 5 3 1 1 2 6 5 1 1 6 5 3 4 5 7 11 11 10 10 8
8 8 8 8 8 8 8 8 8 8 8 12 13 14 15 15 14 13 9 8 8 8 9 9 9 8 7 9 10 10 8 8 8 9 9 9 8 8 9 11 12 12 11 12 13 13 14 14 13 15 14 7 9 7 5 6 7 6 6 5 5 4 2 2 5 5 5 3 3 3 6 4 0 2 6 5 4 5 5 7 10 12 11 10 8
6 5 5 6 7 7 7 8 8 9 8 13 14 15 15 15 17 11 9 9 10 9 9 9 9 8 8 9 9 9 9 10 10 14 13 9 8 10 11 11 10 10 11 13 15 14 13 11 12 14 13 11 10 8 6 6 5 3 2 2 1 1 2 5 10 1 4 2 5 6 3 5 2 1 6 2 3 7 5 3 6 9 10 10 9
7 8 8 8 7 8 9 9 9 9 9 11 14 15 15 16 13 8 9 9 9 10 10 9 8 8 9 9 10 10 10 11 11 12 14 13 9 11 10 10 10 9 12 11 13 17 18 17 18 17 17 16 16 15 14 14 9 6 4 2 9 4 3 8 9 5 6 3 4 6 3 7 1 0 6 4 3 6 5 4 3 5 7 8 9
8 9 8 8 7 8 9 10 10 10 10 11 14 15 16 17 14 10 9 9 10 10 10 9 9 9 10 14 13 12 12 12 11 14 15 13 11 11 10 11 11 11 12 11 6 7 13 18 20 21 20 19 18 18 16 16 15 11 8 12 5 6 8 7 9 4 3 3 6 8 3 6 0 0 2 6 4 2 3 3 2 3 4 6 9
7 7 6 8 7 7 8 9 11 12 9 9 14 15 17 17 15 9 8 8 10 11 10 10 8 9 10 11 17 16 14 14 14 15 17 15 12 12 11 10 12 12 14 7 6 7 6 7 9 10 12 14 14 13 13 18 18 14 12 12 5 7 8 7 7 4 7 6 3 12 6 3 2 1 0 5 4 4 0 2 2 2 2 1 3
Wind_Direction
115 117 109 100 102 97 97 100 102 111 109 96 115 116 107 110 108 108 104 103 101 96 91 82 83 81 94 82 79 70 66 58 54 50 42 32 15 20 40 37 38 37 35 32 30 29 28 22 20 19 20 22 21 17 21 17 18 11 10 7 13 17 12 17 19 17 14 13 9 12 12 12 11 10 7 8 8 7 7 6 7 4 4 3 5
118 121 116 110 103 97 96 106 109 119 116 117 122 120 124 110 107 108 109 110 104 109 102 94 83 87 89 94 76 85 79 75 59 55 48 37 25 19 31 38 37 36 34 32 33 32 27 25 20 17 18 21 20 18 18 17 17 16 9 12 3 17 11 18 23 17 14 12 9 12 13 12 11 10 10 9 8 9 8 6 6 6 6 7 6
122 122 107 115 107 107 105 108 111 114 116 119 122 125 128 129 132 128 124 115 107 106 111 104 99 83 87 91 101 85 76 71 65 49 49 36 29 33 22 29 35 35 32 31 31 31 29 25 22 19 17 20 19 19 18 18 15 14 9 9 9 16 11 17 22 18 13 13 9 13 12 13 10 9 10 10 9 11 9 9 6 6 5 7 7
129 123 123 120 121 117 122 118 124 116 116 125 119 114 116 110 108 111 111 111 107 91 99 110 97 96 90 91 90 87 76 74 68 59 53 43 33 35 30 20 23 33 32 31 29 28 27 24 21 21 17 19 17 17 20 15 14 18 11 7 358 19 12 15 22 15 14 10 11 14 12 13 11 10 10 10 10 9 10 10 8 6 7 4 7
131 130 123 121 123 124 125 126 131 129 122 121 115 110 105 105 95 102 98 99 99 90 81 83 102 86 89 83 92 81 69 76 69 61 53 47 38 38 32 24 21 21 27 30 26 26 24 23 22 20 19 18 18 16 17 14 15 14 7 8 5 19 6 17 18 15 12 11 12 13 12 11 11 11 10 12 8 11 7 13 8 7 6 5 6
132 123 122 125 129 135 133 127 135 131 127 123 119 125 122 117 128 116 124 121 122 128 111 94 76 77 81 78 81 88 69 75 69 78 68 52 35 47 25 28 23 21 22 20 22 22 22 22 21 21 20 20 18 16 16 13 14 12 12 6 357 18 4 18 18 14 11 12 11 12 12 11 10 11 11 10 10 10 7 10 7 7 4 4 4
131 132 133 131 134 133 128 138 138 136 134 130 127 128 127 133 140 120 103 100 116 126 124 127 129 119 108 84 106 55 62 95 78 64 60 45 55 38 36 28 20 31 32 21 12 14 21 19 20 20 19 21 19 18 16 12 13 13 9 10 358 15 1 14 18 15 11 12 11 12 12 10 9 11 10 9 8 9 9 9 7 7 3 3 3
135 135 133 137 136 137 139 134 135 125 118 118 125 136 133 129 141 136 123 134 129 93 90 123 121 133 104 80 84 83 100 95 89 74 53 68 54 50 37 29 27 32 36 22 18 7 17 19 20 18 18 18 19 19 14 11 11 12 9 6 2 3 9 16 17 17 12 13 11 12 12 8 8 9 9 8 7 8 6 7 7 6 4 5 2
136 138 135 136 130 128 132 131 136 133 131 122 124 135 139 133 122 143 139 151 144 123 92 106 127 123 87 81 7 60 178 234 232 92 33 67 62 53 43 24 30 37 29 25 24 12 7 17 18 16 13 18 19 19 14 6 11 12 12 3 5 360 7 15 13 15 13 13 12 11 12 8 6 8 10 6 4 7 6 5 6 5 4 4 3
133 135 128 132 132 132 130 136 137 130 124 126 128 130 134 139 123 53 118 135 142 142 145 125 114 111 81 53 319 345 292 306 308 60 78 85 68 64 70 50 45 30 30 32 28 11 12 6 13 11 6 15 17 17 13 5 8 12 9 6 4 2 5 9 10 13 15 13 11 11 13 9 6 5 6 6 8 6 6 4 4 4 5 5 4
130 135 132 133 130 127 129 148 140 130 122 123 129 134 127 121 135 105 52 53 150 161 153 142 103 90 89 335 329 280 296 264 39 51 48 105 114 110 69 33 41 29 34 35 17 24 13 6 9 4 353 8 13 12 12 5 8 13 7 2 358 359 7 4 10 9 14 13 11 10 10 10 5 3 3 8 5 5 6 5 3 4 4 3 4
129 139 135 138 136 133 132 144 135 132 129 131 142 149 152 134 138 132 118 69 48 98 124 114 70 66 32 329 305 293 285 167 43 21 11 31 23 60 55 15 52 20 36 18 21 24 19 8 10 354 0 357 5 9 5 8 7 10 5 3 356 357 1 2 7 9 11 12 12 10 9 10 7 5 1 2 2 4 6 5 3 4 4 4 3
135 144 143 136 129 129 122 106 115 124 123 137 126 127 151 146 137 117 135 118 67 89 139 124 111 59 7 329 319 310 272 126 275 354 289 313 340 76 30 57 20 30 0 6 25 24 23 10 354 353 360 356 346 354 359 357 353 6 0 358 356 359 356 359 5 7 12 10 10 11 11 12 10 8 1 360 359 3 3 7 3 4 5 5 3
144 146 149 145 137 131 124 125 120 99 106 133 112 128 145 141 144 98 21 131 137 183 189 117 58 154 151 291 326 317 278 130 266 260 278 276 311 66 59 77 60 3 5 21 9 32 23 360 346 353 357 353 344 340 345 344 328 356 2 356 344 353 354 358 5 4 10 9 7 9 11 10 11 9 3 1 0 1 2 2 1 3 3 3 5
145 144 147 150 134 129 137 126 113 122 123 112 113 164 180 166 179 148 120 38 99 185 190 157 167 130 144 98 311 3 338 343 18 264 277 238 299 310 72 83 32 343 342 358 15 23 17 354 338 355 352 348 342 341 339 341 341 356 352 354 344 359 356 358 359 3 8 5 4 7 8 11 11 8 8 4 4 2 1 2 1 2 2 3 2
124 129 132 137 137 135 128 127 124 131 130 116 152 182 180 180 170 160 140 128 89 191 196 193 135 141 180 207 230 115 335 313 282 285 287 257 225 238 337 302 343 351 47 29 331 10 344 328 336 342 343 339 340 339 339 334 351 353 346 341 346 359 351 349 1 1 10 6 5 4 4 9 11 9 8 3 359 359 2 2 1 358 359 1 1
133 131 137 148 135 124 133 146 149 149 127 136 175 199 199 187 172 155 176 147 192 188 220 158 208 307 128 99 355 299 223 219 126 306 22 177 257 260 269 267 304 317 1 292 319 261 296 328 336 336 338 338 337 337 336 340 337 331 329 329 348 352 349 349 352 4 4 9 6 1 2 7 8 9 9 4 1 1 1 358 1 359 1 359 359
147 148 163 155 144 143 151 157 157 146 161 179 182 169 190 181 193 177 177 180 146 152 179 196 1 164 161 122 179 229 336 266 163 286 355 219 295 276 258 269 327 286 291 289 292 300 158 292 319 328 327 330 326 333 340 338 337 332 319 320 345 348 348 348 345 353 4 3 5 358 2 5 4 8 7 8 6 360 357 356 0 2 1 358 1
143 148 162 160 146 145 150 155 156 160 167 171 183 189 181 187 171 184 189 153 131 159 191 197 76 66 89 103 105 21 151 135 263 129 23 313 263 267 248 0 308 289 270 254 253 264 273 219 296 311 313 310 325 326 336 337 342 339 337 340 343 347 348 346 344 346 358 -0 2 2 357 359 2 5 8 7 5 5 360 360 359 359 359 3 358
133 127 144 151 149 145 145 153 163 171 168 192 189 178 157 160 181 191 159 175 176 172 184 176 170 178 78 90 87 66 48 81 125 159 156 183 264 306 245 296 309 255 238 252 247 222 243 276 283 308 306 311 318 327 327 329 330 327 320 336 344 344 347 346 341 343 350 354 359 356 358 356 357 2 2 5 5 2 2 360 360 360 2 1 3
118 121 117 120 133 140 146 163 174 169 169 169 171 174 184 171 171 176 188 197 194 171 142 189 168 167 126 67 82 65 55 63 99 73 132 150 279 191 243 331 300 263 274 245 253 234 220 230 230 256 287 303 312 317 322 323 326 321 317 341 342 344 346 344 339 339 343 349 352 355 353 353 356 359 359 3 2 2 3 2 1 359 2 1 2
121 125 121 115 112 119 146 165 166 159 161 167 166 176 190 189 186 188 183 186 180 168 186 168 169 152 163 157 130 114 48 22 29 67 32 53 166 221 225 217 248 276 296 294 298 265 222 223 244 260 262 283 310 317 315 319 309 314 319 343 343 345 345 340 337 336 337 342 345 350 351 349 354 356 356 358 360 1 3 2 1 0 1 1 2
134 135 143 141 140 151 165 163 160 170 157 159 187 186 187 184 169 158 170 180 177 174 126 115 140 149 161 174 178 165 179 176 214 217 161 128 69 302 269 220 213 308 286 306 290 268 235 209 221 247 234 277 297 311 313 303 313 310 336 340 344 344 343 340 336 335 334 336 340 342 347 346 349 354 356 355 357 360 1 2 1 359 1 1 2
153 149 157 151 150 158 159 156 166 163 172 175 165 163 147 141 148 165 167 137 129 146 136 130 146 162 179 189 177 158 129 171 202 165 149 189 138 177 188 310 289 230 285 317 271 259 258 224 222 214 227 244 288 293 303 308 304 314 327 331 338 344 344 342 337 335 331 333 336 338 343 341 344 349 353 353 356 355 357 360 3 359 359 0 1
181 175 181 169 161 162 164 166 157 167 156 149 155 153 161 161 168 172 143 168 170 156 157 165 165 172 191 205 151 164 202 207 138 139 95 121 127 117 249 98 227 307 299 31 311 303 233 237 219 219 207 222 276 320 309 309 301 304 327 329 333 338 344 344 341 335 331 331 333 334 338 337 339 346 347 351 353 352 354 357 1 0 359 0 0
177 184 170 162 166 167 158 152 161 167 166 170 167 173 163 163 162 163 156 145 134 138 132 131 135 140 139 140 160 168 152 161 146 131 145 124 113 147 167 354 154 275 293 344 317 4 314 253 250 214 200 222 267 304 309 304 304 305 326 338 323 329 341 344 340 335 332 331 331 332 334 335 336 341 344 347 350 350 352 354 358 359 358 359 -0
178 166 160 165 165 164 169 174 179 177 164 159 152 149 147 136 148 135 120 130 128 128 132 145 144 148 147 143 142 138 159 166 147 155 154 161 153 167 142 146 317 253 317 308 333 232 243 300 281 222 207 223 253 285 297 297 293 308 328 332 309 322 337 343 340 337 335 333 331 331 333 332 334 338 340 343 347 347 349 352 355 357 357 358 359
157 159 166 169 173 178 181 190 178 169 168 170 163 157 159 155 137 134 127 124 132 132 142 138 139 143 135 127 122 166 166 165 169 164 192 168 135 140 122 125 134 313 348 341 346 296 203 258 316 235 212 221 258 257 294 302 302 313 327 316 304 312 325 338 340 338 336 333 331 330 331 331 333 335 336 339 342 343 345 349 352 355 356 359 358
155 159 161 170 179 187 187 181 171 168 169 172 162 157 161 156 152 144 135 133 126 135 140 133 139 139 142 164 164 166 174 150 127 135 130 101 115 136 135 151 160 122 273 337 279 229 277 195 203 281 193 248 270 282 302 301 298 310 316 311 304 302 313 335 337 338 335 330 329 328 327 330 331 333 333 335 338 339 342 345 349 353 353 358 360
156 161 161 168 178 183 181 178 172 169 175 165 161 155 151 154 155 139 132 135 122 114 134 134 141 135 136 142 148 147 151 141 155 160 146 145 143 145 133 134 130 148 170 152 271 207 236 270 203 234 309 293 306 310 292 293 300 318 313 313 307 297 315 332 330 334 333 330 329 328 328 331 333 333 334 332 334 335 338 342 346 351 351 356 359
155 161 162 169 174 179 176 177 173 174 164 161 152 154 172 165 155 139 138 143 140 146 161 154 159 152 159 152 142 140 161 155 152 169 169 152 148 128 123 125 130 141 150 131 202 275 179 243 263 237 243 282 290 302 297 286 298 310 315 312 304 302 321 322 325 328 333 331 328 327 330 335 335 334 333 333 333 334 336 341 345 350 352 354 357
165 164 163 167 174 177 176 173 180 173 171 167 162 165 171 162 149 146 150 149 157 167 168 156 155 167 161 167 178 170 173 161 172 180 181 186 153 143 144 129 132 154 139 132 181 264 230 211 233 273 236 262 291 288 291 301 294 310 306 304 300 309 311 310 319 321 326 327 324 325 333 338 337 334 332 334 336 338 340 345 351 355 359 357 355
164 165 169 175 178 178 172 189 184 180 173 167 164 162 169 163 157 150 146 169 171 166 149 164 178 178 181 179 185 182 162 165 181 170 162 156 120 128 145 136 149 195 137 143 188 266 298 221 255 260 276 279 306 194 273 304 316 317 306 291 294 298 302 308 310 312 320 322 319 323 332 337 335 332 332 333 335 336 343 349 353 355 358 358 354
170 171 173 174 176 176 175 183 186 182 177 171 175 172 177 174 173 166 172 179 183 175 168 188 189 190 175 171 173 166 187 179 170 176 172 157 164 165 217 187 178 191 197 137 206 206 272 314 302 303 300 220 268 243 213 307 313 323 313 308 293 278 295 303 307 304 316 319 316 317 327 333 333 329 327 330 332 334 338 344 350 350 354 356 353
173 174 174 171 173 173 175 179 184 186 185 183 179 183 186 185 186 191 189 187 190 186 193 196 179 174 182 195 188 174 158 180 189 190 176 184 180 187 203 207 208 210 209 183 140 222 255 282 274 304 284 301 228 272 273 259 273 276 292 296 297 299 282 286 290 289 306 314 314 314 317 326 328 325 321 322 328 330 332 338 344 346 346 349 351
171 177 177 173 168 176 179 182 188 191 187 184 181 192 196 194 197 199 193 195 197 201 202 191 182 181 192 191 201 178 170 169 169 185 201 201 198 197 195 199 208 215 213 209 225 194 201 244 287 216 269 297 285 264 269 275 274 276 248 283 283 274 288 291 284 293 292 306 312 310 311 318 321 320 316 315 321 328 330 332 338 340 338 339 343
174 168 174 166 169 174 186 188 188 193 194 184 185 193 201 205 210 206 197 197 206 211 207 194 185 188 195 207 194 181 178 192 199 183 180 194 188 189 205 202 201 201 192 202 222 217 219 239 277 260 247 266 254 288 274 307 307 278 263 261 274 277 283 276 291 279 287 304 306 305 304 309 316 316 315 312 312 322 326 329 333 334 330 327 334
170 174 171 172 176 187 192 189 189 194 188 188 192 195 200 204 209 211 209 208 213 215 208 201 196 194 200 207 197 187 190 198 211 209 193 192 166 201 216 213 200 182 195 208 205 214 225 251 246 296 255 260 311 269 232 115 347 325 310 277 261 265 263 305 270 271 277 288 309 295 297 306 311 313 313 308 304 311 320 325 329 327 321 318 326
172 174 178 176 186 188 192 184 190 190 190 190 194 197 202 206 210 210 212 214 219 218 216 209 208 206 208 206 202 199 204 205 208 205 196 199 204 214 216 213 191 186 200 209 203 218 226 250 263 240 279 269 242 281 237 296 309 248 272 319 314 245 244 348 315 288 281 309 277 276 288 300 299 301 303 302 297 300 309 318 323 321 315 312 320
180 181 178 184 187 189 191 191 194 186 185 190 194 202 207 206 203 209 209 215 220 223 220 218 214 217 216 214 211 210 212 210 206 208 193 202 200 214 209 191 176 182 205 206 204 215 208 231 251 268 236 284 277 249 297 345 316 321 213 184 277 307 307 293 239 297 319 352 328 325 307 300 293 293 302 302 294 291 301 312 317 315 310 307 314
183 182 181 180 179 190 192 190 187 183 188 199 198 203 206 207 203 206 208 215 219 225 225 224 222 223 225 221 223 222 217 217 210 209 211 203 192 209 208 189 177 191 209 216 216 209 202 223 262 241 266 271 263 274 286 252 230 254 229 165 256 262 295 312 292 234 263 328 312 307 305 308 309 302 304 306 290 292 297 305 311 311 305 303 311
180 174 175 184 187 191 188 191 189 188 201 204 211 211 203 198 199 203 208 217 220 223 227 230 229 224 228 226 228 225 222 219 216 219 219 215 211 207 199 188 195 199 210 216 217 210 216 232 244 241 250 259 263 225 237 232 202 133 324 224 271 296 329 290 271 266 267 82 324 316 303 277 279 301 299 284 286 279 283 299 283 288 292 298 309
179 177 181 186 193 192 192 191 195 199 203 210 215 215 210 200 193 201 208 217 218 223 224 227 232 231 230 228 232 225 222 221 222 222 221 224 223 222 220 208 197 194 198 209 221 207 216 232 239 219 231 259 263 211 224 227 197 199 222 203 235 301 310 344 311 305 153 65 349 325 311 340 307 303 303 280 278 289 266 265 285 297 293 293 304
186 176 185 193 192 191 194 201 206 205 209 213 218 216 209 203 199 205 209 216 220 224 224 226 231 234 236 234 232 226 222 223 223 226 229 229 229 231 231 229 221 214 212 205 214 210 213 229 238 234 228 237 263 223 225 182 226 210 229 214 213 218 246 253 236 264 243 115 8 334 296 349 64 249 295 276 271 257 261 267 285 291 284 285 300
179 188 196 187 197 194 197 205 214 211 215 212 218 213 210 209 203 206 221 222 227 230 224 225 230 232 234 239 243 231 231 224 224 224 222 227 230 234 235 234 233 227 224 225 226 225 205 219 233 248 223 235 248 250 184 202 168 202 173 208 224 221 223 242 249 265 290 198 9 308 289 294 64 314 280 275 257 255 263 267 276 281 274 275 293
190 197 195 198 198 199 201 206 211 211 217 216 216 216 222 219 215 212 226 227 234 238 232 229 231 228 224 230 238 243 229 221 219 219 223 228 228 227 231 232 236 238 236 234 233 232 230 228 227 240 245 181 236 235 183 170 157 200 183 230 190 218 217 230 243 242 261 148 226 272 294 292 48 350 275 272 241 268 248 257 269 272 262 261 278
196 201 199 202 206 204 205 206 211 216 219 214 214 214 215 215 213 215 224 228 234 237 235 232 232 229 227 228 235 243 236 229 218 212 217 220 220 227 229 231 231 233 231 231 229 226 226 227 232 239 250 221 233 238 192 188 200 203 193 215 207 212 212 289 287 237 269 213 165 141 251 280 253 315 261 264 291 278 257 264 268 268 252 244 259
205 201 210 203 207 208 207 206 213 225 226 215 213 213 213 212 211 214 219 226 232 236 238 235 233 231 230 232 240 244 241 241 228 215 215 210 218 229 234 239 241 238 239 235 230 223 225 228 234 239 244 237 233 231 203 195 207 183 117 77 63 105 330 296 274 284 237 241 194 173 241 275 202 226 282 270 282 284 275 245 274 273 248 238 249
200 205 208 205 204 204 206 209 213 225 229 220 215 214 213 213 212 215 218 228 236 240 243 237 234 233 229 225 229 239 240 241 229 211 211 206 222 232 238 246 246 248 251 248 235 235 234 230 232 237 242 244 241 237 226 208 201 178 165 228 246 162 216 266 270 263 264 179 224 210 195 280 271 239 296 280 259 272 294 300 301 300 267 254 267
206 210 205 211 210 208 209 213 211 219 228 219 210 211 211 211 207 210 212 220 234 239 248 239 235 236 231 226 225 231 237 240 222 211 211 204 221 231 236 242 249 250 256 252 245 235 229 233 236 240 242 244 244 244 239 228 210 178 181 231 215 147 222 220 258 243 278 231 222 177 175 236 258 131 282 293 318 268 270 292 306 322 319 305 298
210 200 201 212 216 216 216 220 214 218 228 220 206 208 210 211 210 211 209 217 232 238 238 244 234 237 239 229 226 226 231 236 222 207 206 203 218 223 226 233 244 251 251 253 240 238 222 227 242 241 249 246 245 242 241 235 229 209 204 224 171 196 229 233 239 285 298 263 201 162 199 266 144 249 93 344 335 281 252 275 304 295 304 295 292